[[{"header":{"parameterUnit":"m.s-1","parameterCategory":1,"la1":30.2991,"la2":30.254,"lo1":-89.0895,"lo2":-89.0444,"dy":0.0017,"dx":0.0017,"nx":28,"ny":28,"refTime":"2024-04-29T03:00:00:Z","depth":0,"parameterNumber":2,"parameterNumberName":"U-component_of_WINDS"},"data":[0,0,0,0,0,0,0,0,0,0,0,0,0,0,0,0,0,0,0,0,0,0,0,0,0,0,0,0,0,0,0,0,0,0,0,0,0,0,0,0,0,0,0,0,0,0,0,0,0,0,0,0,0,0,0,0,0,0,-7.0044,-7.0046,0,-7.0205,-7.0207,-7.0208,-7.0176,-7.0173,-7.017,-7.0167,-7.0326,-7.0333,-7.034,0,0,0,0,0,0,0,0,0,0,0,0,0,-6.9703,-6.9709,-7.0044,-7.0046,-7.0048,-7.0205,-7.0207,-7.0209,-7.0176,-7.0173,-7.0169,-7.0166,-7.0324,-7.0332,-7.0341,0,0,0,0,0,0,0,0,0,0,0,0,0,-6.9856,-6.9711,-7.0043,-7.0051,-7.0053,-7.0204,-7.0207,-7.021,-7.0177,-7.0173,-7.0168,-7.0164,-7.0321,-7.0332,-7.0342,-7.0494,0,0,-7.0374,-7.0378,0,0,0,0,0,0,0,0,-6.9847,-6.9868,-7.0047,-7.005,-7.0053,-7.0166,-7.0145,-7.0305,-7.0178,-7.013,-7.0167,-7.0162,-7.0276,-7.029,-7.033,-7.0502,-7.0509,-7.0375,-7.0381,-7.0386,-7.0389,0,0,0,0,0,0,0,-6.9837,-6.9861,-7.0107,-7.005,-7.0054,-7.0044,-7.0061,-7.0175,-7.0225,-7.0134,-7.0132,-7.0151,-7.0277,-7.032,-7.0333,-7.0511,-7.0374,-7.0384,-7.039,-7.0394,-7.0814,-7.0819,0,0,0,0,0,0,-6.9824,-6.9853,-7.0102,-7.0112,-6.9937,-7.0054,-7.0073,-7.0134,-7.0224,-7.0234,-7.0155,-7.0149,-7.0304,-7.0321,-7.0339,-7.0521,-7.0386,-7.0395,-7.0401,-7.0809,-7.0815,-7.082,0,0,0,0,0,0,-6.9817,-6.9847,-7.0096,-6.9982,-7.0013,-7.0064,-7.0133,-7.014,-7.0182,-7.0241,-7.0249,-7.019,-7.0301,-7.0324,-7.0456,-7.0526,-7.04,-7.041,-7.0804,-7.0811,-7.0818,-7.0888,0,0,0,0,0,0,-6.9807,-6.9845,-6.9904,-6.9984,-7.0019,-7.0212,-7.0138,-7.0146,-7.0201,-7.0195,-7.0275,-7.0284,-7.03,-7.044,-7.0466,-7.0538,-7.0418,-7.0797,-7.0807,-7.0816,-7.0879,-7.0897,-7.0911,0,0,0,0,0,-6.9795,-6.9917,-6.9907,-6.9938,-7.0095,-7.0216,-7.0236,-7.0253,-7.0207,-7.0266,-7.0304,-7.0282,-7.0515,-7.0454,-7.0483,-7.0559,-7.0793,-7.0804,-7.0815,-7.0872,-7.0893,-7.0911,0,0,0,0,0,0,-6.9842,-6.9927,-6.9918,-7.0069,-7.0136,-7.021,-7.0285,-7.0275,-7.0354,-7.0345,-7.0361,-7.0379,-7.0513,-7.055,-7.048,-7.071,-7.0647,-7.0664,-7.0681,-7.0701,-7.0717,-7.0704,-7.0426,0,0,0,0,0,-6.987,-6.9963,-7.0032,-7.0158,-7.0193,-7.0234,-7.0287,-7.0294,-7.0363,-7.0391,-7.0438,-7.0504,-7.0592,-7.0649,-7.0734,-7.0886,-7.0901,-7.0953,-7.0968,-7.0981,-7.0995,-7.1075,-7.1098,-7.0857,-7.0856,-7.0856,0,0,-6.9928,-6.9986,-7.0043,-7.0169,-7.0222,-7.0315,-7.0257,-7.0359,-7.0428,-7.0405,-7.0532,-7.057,-7.0645,-7.0787,-7.0852,-7.0821,-7.1066,-7.0995,-7.1005,-7.1012,-7.1089,-7.1112,-7.1132,-7.0864,-7.0863,-7.0861,0,0,-7.0081,-7.0136,-7.0246,-7.0301,-7.0382,-7.0409,-7.0436,-7.0513,-7.0537,-7.0665,-7.065,-7.0732,-7.0884,-7.0937,-7.0984,-7.1159,-7.1141,-7.1187,-7.1268,-7.1347,-7.1366,-7.1383,-7.1442,-7.1463,-7.1201,-7.1201,-7.1201,0,-7.0142,-7.0285,-7.0304,-7.0407,-7.0462,-7.0449,-7.0559,-7.0611,-7.0715,-7.0751,-7.0717,-7.0907,-7.0957,-7.111,-7.1153,-7.1193,-7.1221,-7.1175,-7.1362,-7.1379,-7.1395,-7.1452,-7.1474,-7.1206,-7.1205,-7.1205,-7.1204,0,-7.0354,-7.0453,-7.0532,-7.0635,-7.0699,-7.0805,-7.0839,-7.0901,-7.0903,-7.0933,-7.1063,-7.1123,-7.1218,-7.1256,-7.1259,-7.141,-7.1388,-7.1359,-7.1294,-7.1422,-7.1476,-7.1498,-7.1212,-7.1211,-7.1209,-7.1208,0,0,-7.0538,-7.0651,-7.0679,-7.0725,-7.0814,-7.089,-7.0996,-7.1091,-7.1142,-7.1215,-7.1302,-7.1432,-7.1405,-7.1458,-7.1467,-7.1537,-7.1668,-7.1498,-7.15,-7.1524,-7.1834,-7.1853,-7.1878,-7.1658,-7.1663,-7.1666,-7.1827,0,-7.0696,-7.0884,-7.0905,-7.1071,-7.116,-7.115,-7.1242,-7.1305,-7.1337,-7.1416,-7.145,-7.1541,-7.15,-7.1532,-7.16,-7.1637,-7.173,-7.1627,-7.1736,-7.1739,-7.1713,-7.1907,-7.1928,-7.2076,-7.1848,-7.1852,-7.1854,0,-7.0906,-7.0986,-7.1161,-7.1237,-7.1276,-7.1358,-7.1446,-7.1524,-7.1595,-7.1613,-7.1674,-7.1674,-7.178,-7.1716,-7.1861,-7.1791,-7.1837,-7.1862,-7.1869,-7.1876,-7.1801,-7.1915,-7.2124,-7.2145,-7.1888,-7.1885,-7.1883,0,-7.1018,-7.117,-7.1294,-7.1334,-7.1427,-7.1484,-7.1525,-7.1593,-7.1648,-7.1726,-7.1761,-7.185,-7.1897,-7.1965,-7.1988,-7.1939,-7.2132,-7.2069,-7.2146,-7.2146,-7.2184,-7.218,-7.2399,-7.2221,-7.222,-7.222,-7.2219,0,-7.119,-7.1297,-7.1345,-7.1421,-7.154,-7.1563,-7.1679,-7.1717,-7.1778,-7.1859,-7.1857,-7.1933,-7.1961,-7.2042,-7.2061,-7.2177,-7.2199,-7.2214,-7.2217,-7.2212,-7.221,-7.224,-7.2228,-7.2226,-7.2224,-7.2223,-7.2222,0,-7.1333,-7.1371,-7.1504,-7.1582,-7.1604,-7.1688,-7.1754,-7.1826,-7.1857,-7.196,-7.1986,-7.2034,-7.2128,-7.216,-7.2274,-7.2287,-7.2421,-7.2417,-7.2397,-7.2396,-7.247,-7.2461,-7.2712,-7.2745,-7.2549,-7.255,-7.2552,0,-7.1439,-7.1521,-7.1608,-7.1663,-7.1707,-7.1796,-7.1853,-7.188,-7.1939,-7.2027,-7.2088,-7.2183,-7.2259,-7.241,-7.2454,-7.2541,-7.2537,-7.2619,-7.2549,-7.2541,-7.2533,-7.2527,-7.2534,-7.263,-7.2632,-7.2634,-7.2635,0,-7.1622,-7.1636,-7.1719,-7.181,-7.1878,-7.195,-7.2019,-7.2065,-7.2101,-7.2167,-7.2265,-7.2324,-7.2442,-7.2534,-7.2623,-7.2663,-7.2654,-7.2658,-7.2679,-7.2673,-7.2656,-7.2663,-7.2428,-7.265,-7.2649,-7.2648,-7.2647,-7.2646,-7.1747,-7.1819,-7.1891,-7.1984,-7.2039,-7.2104,-7.2175,-7.2216,-7.2299,-7.2397,-7.2408,-7.2512,-7.2581,-7.2699,-7.2744,-7.2825,-7.2801,-7.2834,-7.2841,-7.2848,-7.2852,-7.2647,-7.2842,-7.2841,-7.2841,-7.2841,-7.284,0,-7.1926,-7.1973,-7.2058,-7.2156,-7.2228,-7.2217,-7.2293,-7.2354,-7.2446,-7.2512,-7.2588,-7.2699,-7.279,-7.2842,-7.2931,-7.2985,-7.2984,-7.3008,-7.3002,-7.3011,-7.2869,-7.284,-7.3008,-7.3008,-7.3008,-7.3008,-7.3008,-7.3007,-7.2028,-7.2148,-7.2171,-7.2318,-7.2363,-7.2467,-7.2511,-7.257,-7.2622,-7.2747,-7.2823,-7.2857,-7.2917,-7.3011,-7.3092,-7.3105,-7.3136,-7.3162,-7.3172,-7.3038,-7.3021,-7.3004,-7.2976,-7.317,-7.317,-7.3306,-7.3307,-7.3308]},{"header":{"parameterUnit":"m.s-1","parameterCategory":1,"la1":30.2991,"la2":30.254,"lo1":-89.0895,"lo2":-89.0444,"dy":0.0017,"dx":0.0017,"nx":28,"ny":28,"refTime":"2024-04-29T03:00:00:Z","depth":0,"parameterNumber":3,"parameterNumberName":"V-component_of_WINDS"},"data":[0,0,0,0,0,0,0,0,0,0,0,0,0,0,0,0,0,0,0,0,0,0,0,0,0,0,0,0,0,0,0,0,0,0,0,0,0,0,0,0,0,0,0,0,0,0,0,0,0,0,0,0,0,0,0,0,0,0,3.6434,3.6434,0,3.6445,3.6445,3.6445,3.641,3.6408,3.6407,3.6406,3.6416,3.6418,3.6419,0,0,0,0,0,0,0,0,0,0,0,0,0,3.6384,3.6385,3.6434,3.6434,3.6434,3.6445,3.6445,3.6445,3.641,3.6408,3.6407,3.6406,3.6416,3.6417,3.6419,0,0,0,0,0,0,0,0,0,0,0,0,0,3.6401,3.6385,3.6434,3.6418,3.6417,3.6445,3.6445,3.6445,3.641,3.6408,3.6407,3.6405,3.6416,3.6417,3.6419,3.6463,0,0,3.6425,3.6426,0,0,0,0,0,0,0,0,3.64,3.6403,3.642,3.6419,3.6418,3.6424,3.643,3.6451,3.641,3.6413,3.6406,3.6405,3.642,3.6422,3.6427,3.6463,3.6463,3.6425,3.6426,3.6427,3.6428,0,0,0,0,0,0,0,3.6399,3.6402,3.6438,3.6421,3.6419,3.641,3.6411,3.6434,3.6425,3.6412,3.641,3.6411,3.6419,3.6425,3.6427,3.6464,3.6425,3.6427,3.6428,3.6429,3.6536,3.6538,0,0,0,0,0,0,3.64,3.6401,3.6438,3.6439,3.6405,3.6413,3.6413,3.6424,3.6425,3.6423,3.6413,3.641,3.6423,3.6425,3.6427,3.6478,3.6427,3.6429,3.643,3.6534,3.6536,3.6538,0,0,0,0,0,0,3.6399,3.6403,3.6437,3.6419,3.6423,3.6415,3.6427,3.6425,3.6431,3.6425,3.6423,3.6421,3.6422,3.6425,3.6454,3.6478,3.643,3.6431,3.6532,3.6535,3.6537,3.658,0,0,0,0,0,0,3.6398,3.6403,3.642,3.642,3.6424,3.6464,3.6429,3.6426,3.6434,3.643,3.6432,3.6431,3.6421,3.6452,3.6456,3.6479,3.6433,3.653,3.6533,3.6537,3.6576,3.6583,3.659,0,0,0,0,0,3.6396,3.6431,3.6421,3.6425,3.6444,3.6466,3.6468,3.6456,3.6436,3.6453,3.6449,3.6431,3.6475,3.6455,3.646,3.6484,3.6529,3.6533,3.6536,3.6573,3.6582,3.659,0,0,0,0,0,0,3.6433,3.6431,3.6419,3.6455,3.6461,3.646,3.648,3.6466,3.6477,3.6473,3.6457,3.6457,3.649,3.649,3.6468,3.6526,3.6498,3.6503,3.6525,3.6533,3.654,3.6539,3.6434,0,0,0,0,0,3.6446,3.6463,3.646,3.6493,3.6496,3.6488,3.6497,3.6487,3.6492,3.6494,3.6493,3.6498,3.6513,3.6523,3.6537,3.6577,3.6576,3.6596,3.6603,3.6608,3.6612,3.6633,3.6642,3.6551,3.6551,3.6551,0,0,3.6471,3.6472,3.6484,3.65,3.6503,3.6522,3.649,3.6511,3.6524,3.6497,3.6525,3.6524,3.6529,3.6564,3.658,3.6565,3.6638,3.6613,3.6618,3.6619,3.6638,3.6647,3.6654,3.6554,3.6553,3.6553,0,0,3.6528,3.6531,3.6558,3.6562,3.6567,3.6562,3.6568,3.657,3.6568,3.6596,3.6576,3.6592,3.6618,3.6623,3.6628,3.6688,3.6671,3.6693,3.6728,3.6748,3.6755,3.6762,3.6782,3.679,3.6697,3.6697,3.6697,0,3.6559,3.6586,3.6573,3.6596,3.6603,3.658,3.6608,3.6612,3.6622,3.6627,3.6612,3.6644,3.6646,3.6682,3.6697,3.6702,3.6709,3.6692,3.6756,3.6762,3.6767,3.6787,3.6795,3.67,3.67,3.6699,3.6699,0,3.6624,3.6644,3.6665,3.6675,3.6685,3.671,3.6701,3.6713,3.6702,3.6699,3.6727,3.6729,3.6742,3.675,3.674,3.6785,3.6776,3.6758,3.673,3.6779,3.6797,3.6804,3.6704,3.6703,3.6702,3.6701,0,0,3.6703,3.6707,3.6715,3.6719,3.6724,3.6739,3.6763,3.6776,3.6786,3.6794,3.6814,3.6837,3.6821,3.6828,3.6818,3.6836,3.6883,3.6816,3.6816,3.6828,3.6932,3.6944,3.6953,3.6873,3.6874,3.6875,3.6931,0,3.6758,3.6799,3.6789,3.683,3.6847,3.6826,3.6847,3.6852,3.685,3.6864,3.6861,3.6878,3.6855,3.6859,3.6877,3.6874,3.6903,3.687,3.689,3.6891,3.6889,3.6963,3.6976,3.7029,3.6938,3.6939,3.694,0,3.6827,3.6838,3.6881,3.6883,3.689,3.6909,3.6921,3.6935,3.6941,3.6938,3.6946,3.6933,3.6957,3.6929,3.6961,3.6939,3.6947,3.6947,3.6948,3.6949,3.6918,3.6965,3.7045,3.7053,3.6951,3.695,3.695,0,3.688,3.6906,3.6934,3.6939,3.6943,3.6956,3.6958,3.6963,3.6972,3.6982,3.6988,3.7001,3.7008,3.7018,3.7009,3.699,3.7043,3.7015,3.7041,3.7041,3.7052,3.7051,3.7134,3.7059,3.7059,3.7058,3.7058,0,3.6942,3.6969,3.6958,3.6976,3.7005,3.6993,3.7023,3.7022,3.7026,3.7044,3.7026,3.7043,3.703,3.7046,3.7039,3.7067,3.707,3.7068,3.7066,3.7069,3.7069,3.7073,3.7069,3.706,3.706,3.706,3.7059,0,3.7006,3.6999,3.7029,3.7031,3.7032,3.7053,3.7054,3.707,3.7067,3.7089,3.7093,3.7088,3.7105,3.7098,3.7116,3.7111,3.7147,3.714,3.7145,3.7143,3.7169,3.7166,3.7257,3.7268,3.7186,3.7187,3.7187,0,3.7045,3.7065,3.7069,3.7079,3.7083,3.71,3.7109,3.7098,3.7109,3.7117,3.7132,3.7148,3.716,3.7189,3.7187,3.72,3.7193,3.7224,3.7195,3.7198,3.7193,3.7192,3.7194,3.723,3.7231,3.7231,3.7232,0,3.7116,3.7112,3.7126,3.714,3.7151,3.7161,3.7169,3.7179,3.7168,3.7181,3.7198,3.7208,3.7227,3.7243,3.7255,3.7257,3.7243,3.7241,3.7248,3.7251,3.7253,3.7252,3.716,3.7239,3.7238,3.7238,3.7237,3.7237,3.7168,3.7185,3.7191,3.7207,3.7212,3.7221,3.7236,3.7235,3.7249,3.7264,3.7257,3.7277,3.7283,3.7298,3.7302,3.7318,3.7306,3.7316,3.7318,3.732,3.7324,3.7251,3.732,3.732,3.732,3.732,3.732,0,3.7238,3.7241,3.7256,3.7268,3.7281,3.7267,3.7276,3.7287,3.7306,3.7312,3.7325,3.7345,3.7361,3.736,3.7374,3.7387,3.7381,3.7391,3.7389,3.739,3.7334,3.7326,3.7396,3.7396,3.7396,3.7396,3.7396,3.7396,3.7276,3.7304,3.73,3.7331,3.7333,3.7353,3.7359,3.7367,3.7372,3.7396,3.7409,3.7408,3.7412,3.7426,3.744,3.7439,3.7445,3.7458,3.7454,3.7402,3.7394,3.7387,3.738,3.7459,3.7459,3.7509,3.751,3.751]}]]